Theta_e
322 322 322 322 322 321 321 320 320 320 320 319 319 319 319 318 318 317 317 316 317 317 317 317 319 320 320 316 316 325 342 339 325 317 312 311 309 308 306 308 308 306 308 310 312 313 314
322 322 321 321 321 321 320 320 320 320 320 319 319 319 319 318 318 317 317 316 316 316 316 318 319 320 319 310 321 323 326 328 322 316 314 314 310 311 309 308 307 309 308 308 311 311 313
321 321 321 321 320 320 320 320 320 319 319 319 319 319 319 318 318 318 317 316 316 316 318 319 320 320 315 312 321 321 319 319 319 317 314 315 315 311 311 307 311 309 305 307 309 309 311
320 320 320 320 320 320 319 319 319 318 319 319 319 319 319 318 318 318 316 315 316 317 318 319 321 319 315 321 320 318 320 319 318 318 315 316 316 312 310 311 310 307 305 300 307 309 310
320 320 320 320 320 319 319 318 318 318 318 318 319 318 318 318 318 317 317 315 316 318 319 320 319 317 315 321 316 320 318 316 318 317 317 316 313 309 309 304 303 306 302 302 305 311 309
320 320 320 319 319 318 318 318 318 317 318 318 318 318 318 317 317 317 316 315 319 317 320 322 321 315 319 314 319 320 321 318 316 316 313 311 307 303 303 300 294 300 304 306 305 310 311
319 319 319 319 318 318 317 317 317 317 317 318 318 318 317 317 317 316 314 320 318 318 321 319 317 316 316 319 321 318 319 316 316 314 306 309 303 299 303 304 303 304 303 302 306 311 312
318 318 318 318 317 317 317 317 317 317 317 317 317 317 317 317 316 316 315 318 317 319 312 322 318 318 318 319 313 316 320 311 311 307 310 308 303 307 308 307 305 304 302 301 305 307 307
317 317 317 317 316 316 317 316 316 317 317 317 317 316 316 316 316 313 316 322 323 321 312 316 317 314 315 317 313 315 317 313 309 307 307 304 307 311 308 305 304 304 302 302 302 305 307
316 316 316 316 315 315 316 316 316 316 316 316 316 316 315 316 312 322 322 323 322 323 308 310 313 315 317 318 312 319 319 314 310 307 308 306 310 307 306 304 305 300 306 305 303 301 296
315 315 315 315 314 315 315 315 315 315 316 316 316 315 316 313 317 318 321 323 322 322 298 312 312 322 319 314 314 316 321 316 308 308 309 306 307 307 304 305 307 303 307 305 304 302 302
315 315 315 314 314 314 314 314 315 315 316 316 315 315 315 317 318 322 323 323 322 306 296 307 313 311 311 314 314 315 316 319 319 313 312 309 313 311 309 310 309 310 307 306 306 303 296
314 314 314 314 314 314 313 313 314 314 315 315 316 316 314 321 318 325 324 321 308 300 310 306 306 309 308 309 309 311 309 308 308 303 303 307 308 313 313 308 311 309 305 297 295 295 294
313 313 313 313 313 313 313 313 313 313 314 314 314 313 316 322 328 327 323 314 301 304 305 308 307 307 305 308 306 305 304 302 310 307 301 298 297 305 309 306 305 305 305 297 290 292 296
313 312 313 313 313 313 313 312 312 312 313 312 310 322 325 327 328 328 319 306 302 304 306 304 304 302 302 304 303 302 301 301 306 306 297 295 294 302 303 304 303 300 298 306 299 300 296
312 312 313 313 312 313 313 312 312 313 312 312 321 323 323 322 326 323 314 301 305 306 304 303 299 301 297 299 298 299 299 305 303 304 304 298 291 299 301 304 304 301 304 296 298 290 290
311 312 312 312 312 312 312 312 312 312 311 311 321 320 319 322 326 317 305 305 306 307 304 301 299 298 299 297 299 297 299 302 302 301 302 300 297 296 299 297 296 297 296 298 300 298 290
311 311 312 312 311 311 311 312 311 311 309 305 324 314 319 323 313 311 305 306 302 303 305 303 304 301 299 299 298 298 297 300 303 302 297 302 297 291 294 300 302 300 299 299 296 292 295
311 311 311 311 311 311 311 311 311 310 309 320 320 315 321 319 306 306 307 303 303 302 302 301 301 302 303 300 296 299 300 304 304 302 300 301 295 290 292 297 301 297 299 299 300 300 293
310 311 311 311 311 311 311 311 311 310 309 317 319 310 314 314 311 309 304 301 300 304 303 303 302 303 301 299 302 299 299 302 304 304 307 305 300 295 290 293 297 295 297 299 298 292 292
310 311 311 311 311 311 311 310 311 309 309 321 319 312 311 306 306 306 306 302 300 299 303 305 303 301 299 297 299 299 300 301 303 305 305 304 296 297 297 297 297 296 295 295 295 295 292
310 311 311 311 311 311 311 311 310 310 308 321 312 311 312 308 307 306 300 303 300 300 300 301 300 301 301 299 300 296 299 300 300 304 303 305 296 298 294 297 296 292 294 294 295 296 295
311 311 311 311 311 311 311 311 311 310 311 317 316 317 310 304 307 304 304 302 301 302 304 303 302 301 300 303 303 304 305 305 306 303 301 300 297 295 290 295 295 289 292 293 294 296 294
311 311 311 311 311 311 311 311 311 310 310 314 317 315 310 303 305 304 302 302 301 302 301 303 304 302 306 308 307 307 308 307 306 305 306 300 299 296 291 294 284 294 299 298 295 296 297
311 311 311 311 311 311 311 311 311 311 310 312 318 313 312 304 307 304 303 302 303 304 303 304 305 308 310 306 301 300 299 302 302 303 301 303 299 293 292 289 292 294 296 295 294 293 298
310 311 311 311 311 311 312 312 312 311 310 312 315 317 312 307 305 307 303 304 302 303 304 306 310 311 309 304 300 294 291 294 293 295 302 301 303 296 293 286 284 294 297 303 301 290 299
310 310 310 311 311 311 312 312 312 312 311 311 311 333 311 306 311 310 305 305 308 305 303 306 306 305 309 301 297 295 293 298 291 293 293 296 295 292 290 286 293 299 299 303 289 292 301
309 309 310 310 310 311 311 312 312 312 312 311 310 322 312 307 309 312 312 307 306 306 302 308 304 306 304 299 297 297 295 297 296 299 297 295 293 292 293 290 286 303 300 294 301 303 302
309 309 309 309 310 310 311 311 312 312 312 311 308 317 317 309 309 315 316 317 313 312 308 310 306 306 305 299 300 300 296 298 298 292 302 293 298 295 296 295 306 306 303 305 306 304 303
Wind_Speed
13 14 14 14 13 12 12 12 12 12 11 12 13 13 14 13 14 13 13 13 13 13 13 14 14 13 11 9 13 10 8 7 8 8 14 16 16 16 17 16 15 19 20 19 21 24 26
14 14 15 14 13 13 13 13 12 12 12 12 13 13 13 13 14 13 13 13 12 13 13 13 12 13 8 13 4 8 9 8 9 11 15 18 15 15 16 17 16 15 15 21 19 24 19
16 16 16 14 13 13 13 13 13 13 12 12 12 13 13 13 13 13 13 12 12 13 13 12 10 8 12 19 6 1 7 9 10 11 17 16 15 15 12 16 15 17 17 19 18 21 19
16 16 16 15 14 14 14 14 14 14 13 13 13 12 13 13 13 13 14 13 13 14 13 12 9 9 10 4 6 8 9 8 5 9 10 14 11 12 16 18 19 11 16 16 18 20 18
16 16 16 16 15 14 14 13 14 14 14 14 13 12 12 13 13 13 13 13 16 16 12 10 8 9 10 2 8 10 10 10 8 7 7 6 7 12 16 16 15 16 13 19 20 20 20
18 18 17 17 16 14 13 13 13 13 14 14 13 12 11 11 12 12 13 11 8 8 9 10 10 10 9 11 4 4 6 11 4 8 9 9 7 10 9 10 13 18 16 12 15 20 21
18 18 18 17 16 14 14 13 13 13 14 14 13 11 10 10 10 11 12 5 6 7 10 14 5 11 11 4 3 9 7 8 9 8 11 15 12 13 16 19 17 18 20 19 20 14 20
18 18 18 18 18 16 14 13 12 12 13 13 12 11 10 10 10 9 7 8 10 10 10 20 5 11 2 4 6 7 6 8 11 11 15 12 14 16 16 18 18 20 17 16 13 19 17
18 19 19 19 18 17 15 13 12 11 11 11 10 10 9 10 9 6 11 10 8 10 7 14 3 6 5 9 6 9 8 10 13 15 14 15 17 17 10 14 12 14 15 16 18 18 19
20 20 20 20 18 17 16 15 13 11 10 9 9 8 8 8 4 11 12 5 10 7 7 9 1 6 9 8 5 2 3 8 15 17 15 12 18 15 16 13 14 16 18 19 19 17 14
22 22 22 21 20 18 17 16 14 12 10 9 8 8 7 5 12 9 8 8 9 4 1 6 8 2 7 4 9 6 3 8 14 16 17 17 18 19 10 15 14 17 18 18 17 19 20
22 23 22 22 22 21 19 17 14 11 8 7 7 7 7 7 7 15 9 7 5 6 1 7 7 10 8 7 9 8 20 8 10 18 15 18 19 18 20 18 15 18 17 17 15 17 17
22 23 23 22 22 22 20 18 16 13 10 9 8 7 6 9 8 12 8 7 5 4 7 11 14 12 12 6 12 13 11 15 10 10 14 21 17 8 19 25 24 21 15 12 15 15 15
23 23 23 24 23 22 22 19 17 14 12 10 9 8 10 10 11 8 6 9 8 12 13 15 12 15 14 4 4 11 16 12 11 13 12 13 16 19 11 13 12 21 18 10 9 15 19
22 23 24 24 24 24 23 22 19 16 13 12 9 6 7 6 11 3 7 5 8 9 12 12 15 11 11 16 14 13 13 10 14 16 13 13 17 29 26 23 19 19 14 21 19 18 17
22 23 24 24 24 24 24 23 22 18 14 11 6 9 5 7 7 8 9 5 5 8 11 11 10 9 12 13 11 11 11 16 12 15 15 15 22 18 21 23 18 18 18 17 6 8 11
22 23 23 24 25 25 24 22 22 20 14 6 5 7 7 7 9 10 4 8 6 9 8 8 9 9 10 11 12 12 6 13 11 11 15 16 13 16 20 17 22 18 16 17 2 3 3
22 22 23 23 24 24 25 24 23 22 21 3 7 7 7 7 9 3 8 6 3 6 8 5 5 8 7 11 9 11 9 11 13 13 15 13 9 13 22 21 20 17 14 11 7 11 8
22 22 23 24 25 26 26 25 24 19 15 7 7 3 6 8 5 6 3 7 5 7 6 6 4 5 6 8 6 11 9 8 9 14 10 10 7 12 15 16 21 19 17 18 14 9 16
22 23 23 24 25 25 27 27 27 24 14 4 8 5 4 3 5 8 2 1 2 4 0 4 4 4 6 9 10 6 12 8 13 8 4 2 8 14 13 20 19 20 22 23 14 10 17
21 23 24 25 26 26 27 29 29 30 26 4 4 5 4 6 7 4 5 2 4 1 3 1 4 2 7 6 12 10 14 13 13 7 6 2 11 15 17 21 18 15 12 15 19 4 8
22 23 24 25 26 26 26 28 30 33 36 3 6 6 0 4 4 8 4 1 5 2 2 1 3 7 9 9 6 11 13 11 6 11 9 9 9 14 18 21 7 10 8 8 12 14 15
22 23 23 24 25 26 26 27 28 29 27 7 9 3 6 4 6 6 4 3 4 4 5 4 6 8 9 10 10 11 10 9 8 7 6 5 6 9 13 17 20 5 10 12 10 10 12
23 23 23 23 23 25 25 26 26 25 19 7 6 8 8 10 3 5 3 2 5 4 7 7 5 6 8 10 11 12 13 12 13 10 8 6 10 6 10 12 5 1 4 3 8 4 8
22 22 22 23 24 24 24 25 25 25 23 8 9 7 8 9 11 4 6 5 5 4 8 9 8 5 7 10 11 11 13 14 14 15 6 5 9 9 7 5 6 4 5 3 5 6 4
22 22 22 22 24 24 24 23 23 23 22 10 8 6 7 8 4 8 5 6 7 11 7 13 5 4 5 9 11 13 11 4 4 5 6 6 10 8 18 6 3 3 4 7 5 1 2
21 21 21 21 22 23 24 23 22 21 20 9 7 4 7 9 12 2 5 6 5 5 7 9 2 4 8 9 11 11 6 7 4 10 7 10 6 12 7 3 5 6 4 6 4 4 4
22 22 22 22 21 21 22 23 21 20 17 10 9 5 5 7 12 14 6 6 7 6 8 4 5 5 7 8 8 4 5 4 7 11 9 13 6 9 7 7 2 7 6 4 3 1 2
23 23 23 22 21 21 21 21 20 18 15 10 7 6 3 6 14 16 12 11 9 9 5 3 3 4 4 4 5 6 10 9 6 4 2 3 5 3 3 5 8 7 6 3 6 5 3
Wind_Direction
333 330 324 324 322 315 307 306 300 304 310 312 308 311 308 307 306 311 307 303 304 303 306 305 311 315 301 240 256 137 172 157 196 203 231 236 241 240 252 245 250 241 260 250 254 269 275
336 330 328 326 318 311 307 304 307 312 313 311 309 304 299 302 302 306 300 300 299 298 298 300 305 312 246 268 296 131 183 156 209 206 232 241 238 241 258 259 254 252 255 274 257 263 268
340 336 331 325 314 309 309 311 310 313 312 306 299 295 298 296 302 303 299 298 295 294 293 292 297 286 264 251 320 200 223 225 213 199 241 243 257 264 273 268 273 257 267 260 264 259 260
341 335 328 323 319 317 317 313 313 306 299 296 294 293 290 299 302 302 301 295 291 287 283 284 284 269 263 330 295 227 237 250 225 222 282 311 296 279 279 278 285 244 240 255 263 242 243
342 337 333 329 325 319 313 309 305 302 300 295 290 289 292 297 299 298 295 286 283 279 269 268 255 218 273 128 224 217 223 242 190 241 242 268 292 277 266 251 257 244 241 238 243 259 222
345 342 338 334 329 323 315 307 300 298 292 288 289 289 289 293 302 300 292 276 294 291 224 237 256 263 260 251 70 329 226 250 206 228 233 227 225 237 231 267 258 259 228 253 235 230 216
346 344 342 340 335 326 316 307 300 296 293 291 290 289 293 296 302 302 313 221 208 195 231 249 236 237 296 248 160 232 188 214 239 236 253 210 226 239 236 215 240 263 279 295 305 299 180
347 345 345 343 340 332 324 315 305 300 295 294 294 296 298 303 302 310 283 262 28 334 302 223 250 237 336 284 264 192 172 235 225 251 246 244 226 243 252 257 251 253 269 276 294 299 302
350 349 349 349 344 338 333 326 317 307 298 296 293 297 303 300 308 272 241 306 314 321 271 241 154 68 99 197 274 143 175 224 267 261 263 271 279 293 273 282 282 275 277 283 277 278 279
353 352 352 350 348 344 343 340 327 314 304 298 297 296 293 305 292 261 234 353 337 22 269 150 209 89 177 235 211 358 296 261 273 283 284 306 301 274 288 263 265 266 271 255 258 259 264
354 353 352 352 352 352 350 347 341 326 312 303 302 298 291 252 321 285 4 328 351 252 156 287 76 179 209 307 336 132 249 266 272 284 293 299 304 300 243 270 280 271 264 272 277 278 278
354 353 352 351 352 354 355 351 348 340 325 315 306 297 303 206 225 255 312 337 272 241 317 353 41 345 336 28 351 345 329 225 340 345 293 276 282 300 301 308 280 298 297 285 270 271 254
354 353 351 352 354 354 355 353 352 347 336 321 303 287 262 312 288 330 327 288 229 275 308 33 355 336 320 34 330 334 349 319 12 342 327 321 289 331 353 336 344 335 319 279 265 239 244
355 353 352 352 353 354 354 354 352 348 335 323 314 310 235 250 279 322 307 267 279 13 28 348 335 296 291 40 346 351 317 324 48 2 340 340 320 357 358 346 311 330 325 300 291 311 308
354 353 353 353 353 353 354 353 353 348 339 327 319 233 247 265 221 243 281 281 27 9 351 344 314 1 343 352 2 336 330 329 47 30 8 321 318 324 321 333 321 302 277 287 299 299 292
355 354 353 352 352 352 353 352 351 347 339 340 304 284 251 305 301 280 273 76 81 20 341 344 343 356 332 353 348 324 324 47 18 18 360 326 307 314 314 323 301 285 306 301 12 299 296
355 355 354 353 352 350 350 351 350 346 335 327 258 241 52 318 302 260 341 59 79 65 360 353 352 340 351 356 331 330 342 84 36 358 347 324 324 321 313 314 322 320 311 311 260 229 298
355 355 355 354 351 351 349 350 352 349 339 206 272 280 30 338 275 10 38 14 325 23 8 4 358 330 8 332 331 308 349 1 25 346 334 13 308 304 315 300 282 282 326 351 337 289 266
355 355 356 355 354 352 350 349 351 355 357 313 268 342 60 324 297 103 123 99 47 11 28 355 11 357 346 310 310 344 334 337 1 341 32 352 333 309 326 321 338 344 327 308 322 266 259
355 355 357 357 355 353 351 349 348 349 348 278 282 295 124 71 41 337 106 125 153 105 114 333 326 316 331 329 301 307 296 1 352 60 170 122 274 309 312 315 316 324 359 353 331 314 309
357 358 358 358 357 355 354 350 350 347 346 269 270 57 6 346 48 10 327 340 291 82 177 179 221 349 333 316 312 308 351 339 321 147 310 359 314 317 322 307 326 22 6 3 332 15 309
357 358 359 358 358 357 356 353 351 353 338 252 336 345 73 107 336 291 147 77 325 21 279 26 290 331 305 283 356 321 322 321 311 351 322 17 317 331 310 304 256 88 40 348 345 11 354
356 355 354 355 357 357 356 356 355 3 346 351 360 325 277 156 190 249 61 28 348 320 176 278 327 307 304 12 334 306 293 277 270 279 335 309 317 314 304 332 312 54 349 1 348 360 337
357 355 351 349 352 355 355 355 356 358 9 306 355 314 294 293 230 7 0 292 286 314 312 320 286 304 353 339 301 266 248 242 232 233 210 274 293 283 286 325 341 14 202 338 313 322 323
355 352 349 348 352 352 353 353 352 352 356 320 298 339 315 307 318 237 205 259 280 211 228 260 295 38 338 296 279 270 253 214 266 218 226 226 280 293 280 318 224 179 1 15 359 316 4
352 350 348 349 351 349 348 349 349 348 352 325 323 338 307 286 19 13 319 263 286 287 264 209 189 164 280 284 278 262 268 22 281 311 266 227 267 265 281 267 4 143 58 117 113 301 45
347 345 342 342 344 345 344 344 343 344 346 324 286 326 309 298 298 35 286 332 309 296 272 263 158 288 234 268 282 304 329 316 281 314 299 307 310 293 319 288 120 80 20 152 278 5 60
341 339 340 340 335 336 339 338 338 338 345 341 300 301 309 300 298 294 283 269 265 231 271 59 282 159 265 260 286 317 295 7 258 332 337 302 298 293 306 314 302 77 341 318 58 88 324
337 337 337 334 329 332 333 334 334 332 335 336 276 280 286 269 295 302 289 300 270 287 303 264 307 261 353 309 327 324 315 297 269 250 176 275 288 296 322 271 263 172 172 172 181 227 292